This is the latest recevied weather packets stored in our database for station/object W5ADC. If no packets are shown the sender has not sent any weather packets the latest 10 day(s).
| Time | Temp. | Humidity | Pressure | Rain* | Wind** | Luminosity | Snow |
|---|---|---|---|---|---|---|---|
| 1777996449 | 25.56° C | 77% | 1001 hPa | 0 mm | - | 413 W/m² | - |
| 1777996146 | 25° C | 78% | 1001.2 hPa | 0 mm | - | 393 W/m² | - |
| 1777995842 | 25.56° C | 77% | 1000.8 hPa | 0 mm | - | 346 W/m² | - |
| 1777995538 | 25° C | 78% | 1000.6 hPa | 0 mm | - | 361 W/m² | - |
| 1777995235 | 25° C | 77% | 1000.8 hPa | 0 mm | - | 310 W/m² | - |
| 1777994932 | 25° C | 78% | 1001 hPa | 0 mm | - | 419 W/m² | - |
| 1777994624 | 25° C | 78% | 1001.1 hPa | 0 mm | - | 446 W/m² | - |
| 1777994324 | 25° C | 78% | 1001.2 hPa | 0 mm | - | 393 W/m² | - |
| 1777994021 | 25° C | 79% | 1001.1 hPa | 0 mm | - | 509 W/m² | - |
| 1777993717 | 24.44° C | 80% | 1001.4 hPa | 0 mm | - | 488 W/m² | - |
| 1777993415 | 24.44° C | 80% | 1001.1 hPa | 0 mm | - | 275 W/m² | - |
| 1777993109 | 24.44° C | 81% | 1001.2 hPa | 0 mm | - | 242 W/m² | - |
| 1777992808 | 24.44° C | 80% | 1001.3 hPa | 0 mm | - | 286 W/m² | - |
| 1777992505 | 23.89° C | 81% | 1001.3 hPa | 0 mm | - | 366 W/m² | - |
| 1777992203 | 23.89° C | 81% | 1001.3 hPa | 0 mm | - | 319 W/m² | - |
| 1777991900 | 23.89° C | 81% | 1001.4 hPa | 0 mm | - | 244 W/m² | - |
| 1777991598 | 23.89° C | 82% | 1001.2 hPa | 0 mm | - | 210 W/m² | - |
| 1777991294 | 23.89° C | 82% | 1001.2 hPa | 0 mm | - | 202 W/m² | - |
| 1777990992 | 23.33° C | 82% | 1001.2 hPa | 0 mm | - | 213 W/m² | - |
| 1777990689 | 23.33° C | 82% | 1001.3 hPa | 0 mm | - | 252 W/m² | - |
| 1777990386 | 23.33° C | 83% | 1001.3 hPa | 0 mm | - | 254 W/m² | - |
| 1777989779 | 22.78° C | 84% | 1001.3 hPa | 0 mm | - | 153 W/m² | - |
| 1777989476 | 22.78° C | 84% | 1001.1 hPa | 0 mm | - | 141 W/m² | - |
| 1777989172 | 22.78° C | 85% | 1000.7 hPa | 0 mm | - | 145 W/m² | - |
| 1777988868 | 22.78° C | 85% | 1001 hPa | 0 mm | - | 101 W/m² | - |
* Rain latest hour (hover to see other rain measurements)
** Current wind speed in m/s (hover to see current wind gust speed)